Regional Weather Roundup
Issued by NWS

Home | Current Version | Previous Version | Text Only | Print | Product List | Glossary Off
Versions: 1 2 3 4 5 6 7 8 9 10 11 12 13 14 15 16 17 18 19 20 21 22 23 24 25 26 27 28 29 30 31 32 33 34 35 36 37 38 39 40 41 42 43 44 45 46 47 48 49 50

000
ASUS43 KFSD 260402
RWRSD

WEATHER ROUNDUP FOR SOUTH DAKOTA
NATIONAL WEATHER SERVICE SIOUX FALLS SD
1100 PM CDT FRI MAY 25 2018

NOTE: "FAIR" INDICATES FEW OR NO CLOUDS BELOW 12,000 FEET WITH NO
SIGNIFICANT WEATHER AND/OR OBSTRUCTIONS TO VISIBILITY.


SDZ001>005-009-010-012>017-260500-
NORTHWEST AND NORTH CENTRAL SOUTH DAKOTA

CITY           SKY/WX    TMP DP  RH WIND       PRES   REMARKS
BUFFALO          N/A     71  45  39 N14       29.79S
FAITH            N/A     71  55  56 W3        29.83S
MOBRIDGE       CLEAR     69  57  65 NW6       29.73R
$$

SDZ012>016-024>037-041>051-057-063-072>074-260500-
SOUTHWEST AND SOUTH CENTRAL SOUTH DAKOTA

CITY           SKY/WX    TMP DP  RH WIND       PRES   REMARKS
RAPID CTY ARPT CLEAR     62  56  80 NE3       29.88S
PIERRE         CLEAR     69  60  73 W6        29.77R
CUSTER         CLEAR     60  52  74 NE5       30.02S
ELLSWORTH AFB  CLEAR     72  57  57 CALM      29.87F
PHILIP         CLEAR     66  63  90 W3        29.81S
PINE RIDGE     CLEAR     62  58  86 E5        29.90R
SPEARFISH      FAIR      61  55  82 SE5       29.93R
WINNER         FAIR      75  56  51 CALM      29.81R
$$

SDZ004>011-016>023-039-040-260500-
NORTHEAST SOUTH DAKOTA

CITY           SKY/WX    TMP DP  RH WIND       PRES   REMARKS
ABERDEEN       CLEAR     66  53  63 SW7       29.71R
WATERTOWN      CLEAR     69  56  62 W6        29.73R
BROOKINGS      CLEAR     72  55  55 SW3       29.75R
SISSETON         N/A     75  52  44 W9        29.66S
$$

SDZ017-020-022-023-036>040-048>070-260500-
SOUTHEAST SOUTH DAKOTA

CITY           SKY/WX    TMP DP  RH WIND       PRES   REMARKS
SIOUX FALLS    CLEAR     68  61  78 CALM      29.75R
HURON          CLEAR     73  58  59 W6        29.73R
CHAMBERLAIN    CLEAR     69  62  78 CALM      29.78S
MITCHELL       CLEAR     73  58  59 W7        29.75R
YANKTON        CLEAR     72  62  71 CALM      29.76R
$$

ABBREVIATIONS USED IN REMARKS
   TC - TEMPERATURE IN CELSIUS
  WCI - WIND CHILL INDEX
   HX - HEAT INDEX
  VSB - VISIBILITY




USA.gov is the U.S. government's official web portal to all federal, state and local government web resources and services.